Weather observations for the past three days for
Harrisburg, Harrisburg International Airport
Imperial (Metric)
Date Time (edt) Wind (mph) Vis. (mi.) Weather Sky Cond. Temperature (ºF) Relative Humidity Wind Chill (°F) Heat Index (°F) Pressure Precipitation (in)
Air Dwpt 6 hour altimeter (in) sea level (mb) 1 hr 3 hr 6 hr
Max. Min.
23 18:56 Calm 10.00 Mostly Cloudy FEW045 BKN120 82.9 68 61% 86 30.05 1017.3
23 17:56 W 5 10.00 Partly Cloudy SCT045 SCT120 86 62.1 45% 87 30.04 1016.9
23 16:56 W 6 10.00 Mostly Cloudy SCT045 BKN120 87.1 62.1 43% 88 30.04 1017.1
23 15:56 W 5 10.00 A Few Clouds FEW060 84.9 62.1 46% 85 30.05 1017.3
23 14:56 W 6 10.00 Mostly Cloudy SCT050 BKN140 BKN200 84 62.1 48% 85 30.05 1017.5
23 13:56 W 7 10.00 Mostly Cloudy FEW047 BKN200 84 64 84 73 51% 85 30.06 1017.7
23 12:56 W 7 10.00 Mostly Cloudy FEW040 FEW160 BKN250 82.9 64 53% 84 30.06 1017.7
23 11:56 NW 9 10.00 Mostly Cloudy FEW028 FEW160 BKN250 81 63 54% 82 30.06 1017.8
23 10:56 N 8 10.00 Mostly Cloudy FEW028 FEW160 BKN250 78.1 64 62% 80 30.05 1017.5
23 09:56 NW 13 10.00 Mostly Cloudy SCT027 BKN250 77 66 69% 79 30.05 1017.2
23 08:56 NW 13 10.00 Mostly Cloudy FEW020 FEW120 BKN250 73.9 66 76% 30.03 1016.9
23 07:56 NW 13 10.00 Mostly Cloudy FEW020 FEW120 BKN250 73.9 68 73.9 70 82% 30.01 1016.1
23 06:56 W 13 10.00 Mostly Cloudy FEW031 BKN250 73 69.1 87% 29.99 1015.4
23 05:56 NW 12 9.00 Mostly Cloudy FEW007 SCT011 BKN029 72 70 94% 29.97 1014.9
23 04:56 NW 3 10.00 Overcast SCT007 BKN012 OVC026 72 69.1 91% 29.96 1014.3
23 03:56 S 3 9.00 Overcast BKN007 OVC018 72 69.1 91% 29.94 1013.6
23 02:56 SE 5 8.00 Overcast OVC006 71.1 69.1 94% 29.95 1013.9
23 01:56 SE 6 8.00 Light Rain FEW009 BKN070 OVC080 70 69.1 73.9 70 97% 29.95 1013.9 0.01 0.19
23 00:56 E 7 10.00 Light Rain BKN008 OVC095 71.1 69.1 94% 29.96 1014.3 0.03
22 23:56 SE 6 10.00 Overcast BKN013 OVC120 71.1 69.1 94% 29.96 1014.3 0.04
22 22:56 SE 9 7.00 Light Rain BKN010 BKN015 OVC120 72 70 94% 29.97 1014.8 0.06 0.11
22 21:56 Calm 6.00 Light Rain Fog/Mist SCT030 OVC110 73 71.1 94% 29.98 1014.9 0.05
22 20:56 Calm 10.00 Light Rain SCT020 OVC120 73.9 71.1 91% 29.97 1014.6
22 19:56 E 3 10.00 Overcast SCT020 OVC120 73 70 77 73 90% 29.97 1014.5 0.07
22 18:56 NE 3 10.00 Overcast OVC080 73.9 69.1 85% 29.98 1015.0
22 17:56 SE 6 10.00 Light Rain FEW030 SCT065 OVC100 73 70 90% 29.97 1014.9 0.02
22 16:56 Calm 8.00 Light Rain FEW055 SCT075 BKN090 77 68 74% 79 29.99 1015.2 0.01 0.05
22 15:56 S 10 10.00 Light Rain FEW048 SCT060 BKN070 77 69.1 77% 79 30 1015.8 0.04
22 14:56 SE 8 10.00 Light Rain OVC100 75 70 84% 75 30 1015.9
22 13:56 S 7 10.00 Light Rain FEW022 BKN050 OVC090 77 70 82 73.9 79% 79 30.01 1016.0 0.17 0.19
22 12:56 W 5 6.00 Light Rain Fog/Mist FEW032 BKN075 OVC095 78.1 73.9 87% 81 30.02 1016.3 0.02
22 11:56 S 9 10.00 Thunderstorm in Vicinity BKN023CB BKN031 OVC250 81 72 74% 85 30.03 1016.8
22 10:56 SE 9 8.00 Overcast BKN016 OVC025 80.1 72 76% 84 30.04 1017.1
22 08:56 SE 8 7.00 Overcast BKN011 OVC015 77 72 85% 78 30.04 1017.1
22 07:56 E 5 10.00 Overcast OVC010 75.9 69.1 75.9 72 79% 77 30.04 1016.9
22 06:56 E 6 9.00 Overcast OVC008 75 69.1 82% 75 30.04 1017.1
22 05:56 E 5 10.00 Overcast SCT011 OVC220 73 66.9 81% 30.04 1017.1
22 04:56 NE 5 8.00 Mostly Cloudy BKN200 73 68 84% 30.03 1016.8
22 03:56 E 6 10.00 Mostly Cloudy BKN200 73 68 84% 30.04 1016.9
22 02:56 E 3 10.00 Mostly Cloudy BKN200 75 66.9 76% 76 30.04 1017.0
22 01:56 E 3 10.00 A Few Clouds FEW200 75 66 87.1 73.9 74% 76 30.05 1017.5
22 00:56 Calm 10.00 A Few Clouds FEW060 FEW200 73.9 66.9 79% 30.05 1017.5
21 23:56 S 6 10.00 A Few Clouds FEW060 77 66.9 71% 79 30.05 1017.5
21 22:56 SE 9 10.00 Partly Cloudy SCT060 79 61 54% 80 30.05 1017.5
21 21:56 Calm 10.00 Partly Cloudy FEW035 SCT070 81 59 47% 81 30.04 1017.0
21 20:56 NE 6 10.00 Mostly Cloudy FEW035 BKN070 84 59 43% 84 30.01 1016.1
21 19:56 N 6 10.00 Mostly Cloudy BKN075 87.1 60.1 93 87.1 40% 87 30 1015.5
21 18:56 NE 7 10.00 Partly Cloudy FEW035 SCT080 89.1 59 36% 88 29.99 1015.3
21 17:56 NW 7 10.00 Partly Cloudy SCT035 91.9 55 29% 90 29.98 1015.0
21 16:56 NW 8 10.00 Partly Cloudy SCT035 91.9 57.9 32% 91 29.99 1015.2
21 15:56 Vrbl 5 10.00 Partly Cloudy SCT035 SCT200 91 57 32% 90 29.99 1015.5
21 14:56 W 6 10.00 Mostly Cloudy SCT035 BKN200 90 59 35% 89 30 1015.7
21 13:56 W 7 10.00 Mostly Cloudy SCT035 BKN200 90 60.1 91 73 37% 90 30.01 1016.1
21 12:56 W 6 10.00 Mostly Cloudy SCT035 BKN250 88 63 43% 89 30.02 1016.4
21 11:56 W 5 10.00 Mostly Cloudy SCT035 SCT100 BKN250 84.9 66.9 55% 88 30.03 1016.8
21 10:56 W 6 10.00 Mostly Cloudy FEW030 SCT065 SCT100 BKN250 82 68 63% 85 30.03 1016.7
21 09:56 W 6 10.00 Partly Cloudy FEW065 SCT250 79 68 69% 81 30.04 1017.1
21 08:56 NW 6 10.00 Mostly Cloudy FEW035 SCT100 BKN250 75.9 66.9 74% 77 30.05 1017.2
21 07:56 Calm 10.00 Mostly Cloudy FEW070 SCT100 BKN250 75 66.9 75 69.1 76% 76 30.05 1017.4
21 06:56 Calm 10.00 Mostly Cloudy FEW065 SCT100 BKN250 70 66.9 90% 30.04 1017.1
21 05:56 N 3 10.00 A Few Clouds FEW065 69.1 64.9 87% 30.03 1016.6
21 04:56 Calm 10.00 A Few Clouds FEW080 70 66 87% 30.02 1016.3
21 03:56 Calm 10.00 Partly Cloudy SCT100 71.1 66 84% 30.02 1016.3
21 02:56 SE 3 10.00 A Few Clouds FEW030 71.1 66 84% 30.02 1016.4
21 01:56 S 3 10.00 A Few Clouds FEW030 73 66 80.1 71.1 79% 30.02 1016.5
21 00:56 S 3 10.00 Partly Cloudy SCT050 73.9 64.9 74% 30.03 1016.7
20 23:56 Calm 10.00 Mostly Cloudy BKN110 73.9 64 71% 30.04 1016.9
20 22:56 Calm 10.00 Overcast FEW090 BKN110 OVC200 77 64 64% 79 30.05 1017.3
20 21:56 S 10 10.00 Overcast OVC220 77 64 64% 79 30.04 1017.2
20 20:56 S 8 10.00 Overcast FEW080 OVC200 79 64.9 62% 81 30.04 1017.1
20 19:56 SW 10 G 18 10.00 Overcast SCT080 OVC250 80.1 64.9 84.9 80.1 60% 82 30.02 1016.4
Date Time (edt) Wind (mph) Vis. (mi.) Weather Sky Cond. Air Dwpt Max. Min. Relative Humidity Wind Chill (°F) Heat Index (°F) altimeter (in) sea level (mb) 1 hr 3 hr 6 hr
6 hour
Temperature (ºF) Pressure Precipitation (in)